www.pogodaiklimat.ru

Погода и климат >> Архив погоды >> Россия >> Ямало-Ненецкий АО >> Питляр


ПОГОДА в Питляре

  • Прогноз погоды в Питляре
  • Монитор погоды в Питляре
  • Климат города

АРХИВ ПОГОДЫ в Питляре

Время (UTC), дата Ветер
(напр.,м/с)
 
Видим.   Явления Облачность Т
(С)
Тd
(С)
f
(%)
Тe
(С)
Тes
(С)
Комфортность P
(гПа)
Po
(гПа)
Тmin
(С)
Tmax
(С)
R
(мм)
R24
(мм)
S
(см)
18 11.12 ЮЗ 2 4000 м слабый снег 10/9 300 м
[Frnb As op]
-7.5 -7.9 97 -12 -12 1016.0 1013.9
21 11.12 Ю 2 20 км {снег} 10/6 300 м
[Frnb As trans]
-8.8 -9.3 96 -13 -13 1016.6 1014.4
00 12.12 ЮЗ 3 10 км слабый снег 10/0
[Cs]
-8.2 -8.6 97 -14 -14 1016.8 1014.6
03 12.12 ЮЗ 3 20 км {снег} 10/0
[As op]
-7.0 -7.4 97 -13 -13 1016.8 1014.7 -9.6 0.9 32
06 12.12 Ю 3 н/о н/о -7.5 -7.9 97 -13 -13 1017.0 1014.9
09 12.12 ЮЗ 2 10 км слабый снег 10/0
[As op]
-6.2 -6.4 98 -11 -11 1016.9 1014.8
12 12.12 ЮЗ 4 н/о н/о -7.6 -8.0 97 -14 -14 1016.4 1014.2
15 12.12 ЮЗ 2 20 км 10/0
[As trans]
-8.3 -8.9 95 -13 -13 1016.5 1014.3 -6.1 0.7
18 12.12 ЮЗ 5 20 км 10/0
[Ac lent Ci sp]
-5.5 -6.8 91 -13 -13 1016.0 1013.9
21 12.12 ЮЗ 3 20 км 10/0
[Ac lent Ci sp]
-7.5 -8.7 91 -13 -13 1015.6 1013.5
00 13.12 ЮЗ 5 20 км 10/0
[Ci fib]
-9.1 -10.4 90 -17 -17 1014.7 1012.5
03 13.12 ЮЗ 6
{10}
20 км 10/0
[Ac lent Ci fib]
-7.2 -9.5 84 -15 -15 1012.6 1010.5 -10.3 32
06 13.12 З 8-11
{12}
н/о н/о -4.5 -6.2 88 -13 -13 1013.0 1010.9
09 13.12 З 7
{13}
20 км позёмок {метель} 3/0
[Ac lent]
-8.5 -11.5 79 -17 -17 1016.9 1014.7
12 13.12 З 5 н/о н/о -12.1 -15.4 76 -20 -20 1019.4 1017.2
15 13.12 Ю 1 20 км 10/0
[Ci sp]
-13.5 -16.1 81 -16 -16 1019.0 1016.8 -4.4
18 13.12 Ю 5-10
{10}
20 км в посл. час снег 10/0
[As op]
-7.8 -10.3 82 -15 -15 1013.6 1011.5
21 13.12 ЮЗ 8-11
{13}
10 км позёмок {метель} 10/0
[As op]
-4.4 -4.6 99 -13 -13 1008.5 1006.4
00 14.12 ЮЗ 4
{13}
10 км слабый снег {метель} 10/0
[As op]
-2.6 -4.3 88 -9 -9 1008.0 1005.9
03 14.12 З 10-14
{15}
10 км позёмок {снег, метель} 10/0
[Ci sp]
-2.6 -4.5 87 -12 -12 1006.5 1004.4 -14.5 2 29
06 14.12 ЮЗ 5
{14}
н/о н/о -4.0 -5.9 87 -11 -11 1007.6 1005.5
09 14.12 ЮЗ 12-16
{17}
20 км позёмок {метель} 10/0
[Ac lent Ci fib]
-2.1 -4.0 87 -12 -12 1006.9 1004.8
12 14.12 ЮЗ 10-14
{17}
н/о н/о -1.3 -3.7 84 -10 -10 1008.7 1006.6
15 14.12 ЮЗ 9-12
{15}
10 км позёмок {метель} 10/0
[Ac lent Ci fib]
-2.8 -5.5 82 -11 -11 1008.0 1005.9 -1.0
18 14.12 ЮЗ 5
{12}
20 км {метель} 10/0
[Ac lent]
-2.8 -5.5 82 -9 -9 1008.0 1005.9
21 14.12 З 4 4000 м слабый снег 10/0
[As op]
-2.7 -4.8 85 -9 -9 1008.6 1006.5
00 15.12 ЮЗ 2 20 км {снег} 3/0
[Ac lent]
-4.6 -6.3 88 -9 -9 1009.6 1007.5
03 15.12 ЮЗ 3 20 км 10/0
[Ac und]
-4.9 -6.9 86 -10 -10 1011.6 1009.5 -5.5 0.3 26
06 15.12 ЮЗ 3 н/о н/о -6.5 -7.9 90 -12 -12 1013.2 1011.1 -6.6
09 15.12 ЮЗ 7 50 км 10/3 600 м
[Sc Ci fib]
-3.5 -5.2 88 -12 -12 1013.6 1011.5
12 15.12 З 7
{11}
н/о н/о -1.9 -3.6 88 -10 -10 1014.9 1012.8
15 15.12 З 6 20 км 10/0
[Ac lent Ci sp]
-1.7 -3.5 87 -9 -9 1015.4 1013.3 -1.5
18 15.12 З 6
{11}
20 км 10/0
[Ac lent Ci sp]
-2.4 -3.6 91 -10 -10 1015.7 1013.6
21 15.12 штиль 0 20 км 10/0
[As trans]
-4.5 -5.1 96 -6 -6 1016.1 1014.0
00 16.12 ЮЗ 3 20 км 10/0
[As trans]
-2.0 -3.2 91 -7 -7 1015.1 1012.9
03 16.12 Ю 4
{10}
20 км 10/0
[As op]
-1.1 -3.0 87 -7 -7 1013.2 1011.1 -5.1 26
06 16.12 З 7
{11}
н/о н/о +1.0 -1.0 86 -6 -6 1012.9 1010.9
09 16.12 З 8-10
{11}
50 км 10/0
[Ac und]
+1.5 -0.6 86 -6 -6 1014.1 1012.1
12 16.12 З 5
{11}
н/о н/о +0.4 -1.5 87 -6 -6 1015.7 1013.6
15 16.12 З 9-12
{14}
20 км 10/0
[Ac lent Ci fib]
+1.2 -0.9 86 -6 -6 1016.3 1014.2 +1.8
18 16.12 З 7
{14}
20 км 10/0
[Ac lent Ci fib]
-0.4 -2.1 88 -8 -8 1017.3 1015.2
21 16.12 З 9-12
{12}
20 км 10/0
[Ac As]
+1.1 -1.3 84 -6 -6 1018.1 1016.0
00 17.12 З 7
{12}
20 км 10/0
[Ci fib]
+0.4 -1.4 88 -7 -7 1018.6 1016.5
03 17.12 З 7-11
{15}
20 км 10/0
[Ci fib]
+0.3 -2.0 85 -7 -7 1018.5 1016.4 -0.5 26
06 17.12 З 9-12
{14}
н/о н/о -0.4 -4.1 76 -8 -8 1018.0 1015.9 -1.6
09 17.12 З 12-15
{16}
50 км 10/4 600 м
[Cu hum Ci fib]
-1.2 -5.0 75 -10 -10 1016.8 1014.7
12 17.12 З 7
{15}
н/о н/о -3.4 -6.6 78 -11 -11 1016.7 1014.5
15 17.12 ЮЗ 4
{11}
20 км 10/0
[Ac lent]
-7.0 -9.3 84 -14 -14 1015.3 1013.2 +0.4
18 17.12 З 3 20 км 10/0
[Ac und]
-6.2 -9.6 77 -12 -12 1013.6 1011.5
21 17.12 З 8-11
{15}
20 км 10/0
[As op]
-7.2 -11.6 71 -16 -16 1012.9 1010.8
00 18.12 З 10-13
{15}
20 км 10/0
[Ac As]
-7.9 -11.4 76 -18 -18 1011.3 1009.1
03 18.12 ЮЗ 5
{13}
20 км 10/0
[Ac lent Ci fib]
-9.3 -12.1 80 -17 -17 1010.0 1007.8 -9.6 25
06 18.12 З 9-12
{14}
н/о н/о -6.9 -10.1 78 -16 -16 1009.4 1007.2 -10.0
09 18.12 ЮЗ 6
{13}
50 км 10/0
[Ac trans Ci sp]
-9.8 -12.3 82 -18 -18 1009.6 1007.5
12 18.12 ЮЗ 6 н/о н/о -9.3 -12.0 81 -18 -18 1010.3 1008.1

 

Местоположение метеостанции Питляр (Ямало-Ненецкий АО, Россия): широта 65.83 долгота 65.93 высота над уровнем моря 17 м.

В архиве по умолчанию представлена погода в Питляре за последнюю неделю. Архивные данные за месяц целиком и за предыдущие месяцы, начиная с января 2011 года, Вы можете получить, выбрав интересующий диапазон дат из раскрывающегося списка и нажав кнопку "Ввод!".


*Определитесь, кто Вы:
робот инопланетянин человек

Внимание! Время в таблицах - всемирное. Для получения местного времени необходимо прибавить поправку, которая в Питляре равна 5 ч.

Смотрите также архив погоды в соседних городах и на ближайших метеорологических станциях:

Погода в Мужах (Ямало-Ненецкий АО, Россия) (75 км)
Погода в Салехарде (Ямало-Ненецкий АО, Россия) (85 км)
Погода в Харпе (Ямало-Ненецкий АО, Россия) (108 км)
Погода в Полуе (Ямало-Ненецкий АО, Россия) (127 км)
Погода в Белоярске (Ямало-Ненецкий АО, Россия) (152 км)
Погода в Елецкой (Коми, Россия) (159 км)
Погода в Воркуте (Коми, Россия) (203 км)
Погода в Березово (Ханты-Мансийский АО, Россия) (217 км)
Погода в Петруни (Коми, Россия) (242 км)
Погода на Казым-Мысе (Ханты-Мансийский АО, Россия) (243 км)

Пояснения к столбцам:

Ветер - указаны скорость ветра в м/с - средняя за 10 мин, порывы в срок и между сроками (в фигурных скобках) и направление, откуда дует ветер: С - северный, СВ - северо-восточный, В - восточный, ЮВ - юго-восточный, Ю - южный, ЮЗ - юго-западный, З - западный, СЗ - северо-западный.
Видимость - горизонтальная дальность видимости в метрах или километрах. При видимости от 1 до 10 км при отсутствии осадков обычно наблюдается дымка, при ухудшении видимости до 1 км и менее - туман. В сухую погоду видимость может ухудшаться дымом, пылью или мглою.
Явления - указаны атмосферные явления, наблюдавшиеся в срок или в последний час перед сроком; фигурными скобками обозначены явления, наблюдавшиеся между сроками (за 1-3 часа до срока); квадратными скобками обозначены град или гололедные отложения с указанием их диаметра в мм.
Облачность - указаны через наклонную черту общая и нижняя облачность в баллах и высота нижней границы облаков в метрах; квадратными скобками обозначены формы облаков: Ci - перистые, Cs - перисто-слоистые, Cc - перисто-кучевые, Ac - высококучевые, As - высокослоистые, Sc - слоисто-кучевые, Ns - слоисто-дождевые, Cu - кучевые, Cb - кучево-дождевые. Подробнее классификацию облаков см. в Атласе облаков (PDF).
T - Температура воздуха - температура, измеренная на высоте 2 м над землей.
Td - Температура точки росы - температура, при понижении до которой содержащийся в воздухе водяной пар достигнет насыщения.
f - Относительная влажность воздуха - влажноcть воздуха, измеренная на высоте 2 м над землей.
Te - Эффективная температура - температура, которую ощущает одетый по сезону человек в тени. Характеристика душности погоды. При расчете учитывается влияние влажности воздуха и скорости ветра на теплоощущения человека.
Tes - Эффективная температура на солнце - температура, которую ощущает человек, с поправкой на солнечный нагрев. Характеристика знойности погоды. Зависит от высоты солнца над горизонтом, облачности и скорости ветра. Ночью, в пасмурную погоду, а также при ветре 12 м/с и более поправка равна нулю.
P - Атмосферное давление - приведенное к уровню моря атмосферное давление.
Po - Атмосферное давление - измеренное на уровне метеостанции атмосферное давление.
Tmin - Минимальная температура - минимум температуры воздуха на высоте 2 м над землей.
Tmax - Максимальная температура - максимум температуры воздуха на высоте 2 м над землей.
R - Количество осадков - Количество выпавших осадков за период времени, мм. При наведении курсора мыши на число - период времени, за который выпало указанное количество осадков.
R24 - Количество осадков - Количество выпавших осадков за 24 часа, мм.
S - Снежный покров - Высота снежного покрова, см. При наведении курсора мыши на число - состояние снежного покрова и степень покрытия местности в баллах.